﻿測定場所 (Monitoring sites),日付 (Measurement date),時間 (Measurement time),線量率 最大値 (max) μGy/h,線量率 最小値 (min) μGy/h,線量率 平均値 (average) μGy/h,
江東 (Koto),2017-09-24,23:01～24:00,0.0383,0.0334,0.0361,
江東 (Koto),2017-09-24,22:01～23:00,0.0395,0.0340,0.0358,
江東 (Koto),2017-09-24,21:01～22:00,0.0378,0.0343,0.0362,
江東 (Koto),2017-09-24,20:01～21:00,0.0380,0.0341,0.0361,
江東 (Koto),2017-09-24,19:01～20:00,0.0376,0.0336,0.0361,
江東 (Koto),2017-09-24,18:01～19:00,0.0386,0.0339,0.0363,
江東 (Koto),2017-09-24,17:01～18:00,0.0387,0.0342,0.0361,
江東 (Koto),2017-09-24,16:01～17:00,0.0381,0.0342,0.0359,
江東 (Koto),2017-09-24,15:01～16:00,0.0380,0.0339,0.0359,
江東 (Koto),2017-09-24,14:01～15:00,0.0387,0.0338,0.0360,
江東 (Koto),2017-09-24,13:01～14:00,0.0379,0.0345,0.0360,
江東 (Koto),2017-09-24,12:01～13:00,0.0382,0.0327,0.0355,
江東 (Koto),2017-09-24,11:01～12:00,0.0374,0.0337,0.0356,
江東 (Koto),2017-09-24,10:01～11:00,0.0385,0.0343,0.0359,
江東 (Koto),2017-09-24,09:01～10:00,0.0384,0.0339,0.0360,
江東 (Koto),2017-09-24,08:01～09:00,0.0382,0.0336,0.0359,
江東 (Koto),2017-09-24,07:01～08:00,0.0370,0.0339,0.0357,
江東 (Koto),2017-09-24,06:01～07:00,0.0384,0.0334,0.0361,
江東 (Koto),2017-09-24,05:01～06:00,0.0380,0.0334,0.0359,
江東 (Koto),2017-09-24,04:01～05:00,0.0386,0.0327,0.0357,
江東 (Koto),2017-09-24,03:01～04:00,0.0402,0.0335,0.0359,
江東 (Koto),2017-09-24,02:01～03:00,0.0379,0.0332,0.0360,
江東 (Koto),2017-09-24,01:01～02:00,0.0380,0.0333,0.0358,
江東 (Koto),2017-09-24,00:01～01:00,0.0379,0.0343,0.0360,
江東 (Koto),2017-09-23,23:01～24:00,0.0382,0.0340,0.0358,
江東 (Koto),2017-09-23,22:01～23:00,0.0380,0.0335,0.0359,
江東 (Koto),2017-09-23,21:01～22:00,0.0384,0.0338,0.0360,
江東 (Koto),2017-09-23,20:01～21:00,0.0381,0.0337,0.0357,
江東 (Koto),2017-09-23,19:01～20:00,0.0378,0.0326,0.0357,
江東 (Koto),2017-09-23,18:01～19:00,0.0377,0.0333,0.0358,
江東 (Koto),2017-09-23,17:01～18:00,0.0381,0.0337,0.0357,
江東 (Koto),2017-09-23,16:01～17:00,0.0387,0.0340,0.0359,
江東 (Koto),2017-09-23,15:01～16:00,0.0377,0.0328,0.0355,
江東 (Koto),2017-09-23,14:01～15:00,0.0382,0.0335,0.0359,
江東 (Koto),2017-09-23,13:01～14:00,0.0378,0.0334,0.0358,
江東 (Koto),2017-09-23,12:01～13:00,0.0376,0.0332,0.0357,
江東 (Koto),2017-09-23,11:01～12:00,0.0379,0.0338,0.0356,
江東 (Koto),2017-09-23,10:01～11:00,0.0383,0.0337,0.0358,
江東 (Koto),2017-09-23,09:01～10:00,0.0387,0.0341,0.0362,
江東 (Koto),2017-09-23,08:01～09:00,0.0401,0.0348,0.0373,
江東 (Koto),2017-09-23,07:01～08:00,0.0411,0.0354,0.0382,
江東 (Koto),2017-09-23,06:01～07:00,0.0419,0.0367,0.0389,
江東 (Koto),2017-09-23,05:01～06:00,0.0451,0.0388,0.0418,
江東 (Koto),2017-09-23,04:01～05:00,0.0457,0.0366,0.0404,
江東 (Koto),2017-09-23,03:01～04:00,0.0448,0.0387,0.0415,
江東 (Koto),2017-09-23,02:01～03:00,0.0452,0.0376,0.0411,
江東 (Koto),2017-09-23,01:01～02:00,0.0426,0.0376,0.0400,
江東 (Koto),2017-09-23,00:01～01:00,0.0440,0.0375,0.0404,
江東 (Koto),2017-09-22,23:01～24:00,0.0451,0.0393,0.0419,
江東 (Koto),2017-09-22,22:01～23:00,0.0461,0.0396,0.0434,
江東 (Koto),2017-09-22,21:01～22:00,0.0475,0.0423,0.0448,
江東 (Koto),2017-09-22,20:01～21:00,0.0491,0.0433,0.0455,
江東 (Koto),2017-09-22,19:01～20:00,0.0496,0.0436,0.0462,
江東 (Koto),2017-09-22,18:01～19:00,0.0455,0.0370,0.0407,
江東 (Koto),2017-09-22,17:01～18:00,0.0407,0.0363,0.0383,
江東 (Koto),2017-09-22,16:01～17:00,0.0428,0.0366,0.0398,
江東 (Koto),2017-09-22,15:01～16:00,0.0431,0.0353,0.0392,
江東 (Koto),2017-09-22,14:01～15:00,0.0388,0.0339,0.0365,
江東 (Koto),2017-09-22,13:01～14:00,0.0396,0.0344,0.0365,
江東 (Koto),2017-09-22,12:01～13:00,0.0393,0.0335,0.0364,
江東 (Koto),2017-09-22,11:01～12:00,0.0396,0.0350,0.0369,
江東 (Koto),2017-09-22,10:01～11:00,0.0383,0.0339,0.0364,
江東 (Koto),2017-09-22,09:01～10:00,0.0380,0.0340,0.0364,
江東 (Koto),2017-09-22,08:01～09:00,0.0384,0.0342,0.0364,
江東 (Koto),2017-09-22,07:01～08:00,0.0388,0.0346,0.0366,
江東 (Koto),2017-09-22,06:01～07:00,0.0387,0.0338,0.0367,
江東 (Koto),2017-09-22,05:01～06:00,0.0394,0.0337,0.0365,
江東 (Koto),2017-09-22,04:01～05:00,0.0387,0.0338,0.0365,
江東 (Koto),2017-09-22,03:01～04:00,0.0384,0.0345,0.0366,
江東 (Koto),2017-09-22,02:01～03:00,0.0386,0.0341,0.0363,
江東 (Koto),2017-09-22,01:01～02:00,0.0395,0.0344,0.0366,
江東 (Koto),2017-09-22,00:01～01:00,0.0383,0.0340,0.0359,
江東 (Koto),2017-09-21,23:01～24:00,0.0386,0.0339,0.0365,
江東 (Koto),2017-09-21,22:01～23:00,0.0383,0.0342,0.0365,
江東 (Koto),2017-09-21,21:01～22:00,0.0387,0.0346,0.0364,
江東 (Koto),2017-09-21,20:01～21:00,0.0394,0.0343,0.0363,
江東 (Koto),2017-09-21,19:01～20:00,0.0385,0.0343,0.0364,
江東 (Koto),2017-09-21,18:01～19:00,0.0402,0.0340,0.0365,
江東 (Koto),2017-09-21,17:01～18:00,0.0385,0.0343,0.0365,
江東 (Koto),2017-09-21,16:01～17:00,0.0391,0.0346,0.0363,
江東 (Koto),2017-09-21,15:01～16:00,0.0397,0.0343,0.0365,
江東 (Koto),2017-09-21,14:01～15:00,0.0385,0.0338,0.0364,
江東 (Koto),2017-09-21,13:01～14:00,0.0384,0.0341,0.0361,
江東 (Koto),2017-09-21,12:01～13:00,0.0388,0.0333,0.0362,
江東 (Koto),2017-09-21,11:01～12:00,0.0393,0.0347,0.0364,
江東 (Koto),2017-09-21,10:01～11:00,0.0385,0.0333,0.0361,
江東 (Koto),2017-09-21,09:01～10:00,0.0384,0.0345,0.0364,
江東 (Koto),2017-09-21,08:01～09:00,0.0389,0.0345,0.0367,
江東 (Koto),2017-09-21,07:01～08:00,0.0391,0.0343,0.0366,
江東 (Koto),2017-09-21,06:01～07:00,0.0384,0.0342,0.0363,
江東 (Koto),2017-09-21,05:01～06:00,0.0393,0.0340,0.0362,
江東 (Koto),2017-09-21,04:01～05:00,0.0392,0.0342,0.0365,
江東 (Koto),2017-09-21,03:01～04:00,0.0389,0.0348,0.0365,
江東 (Koto),2017-09-21,02:01～03:00,0.0389,0.0343,0.0366,
江東 (Koto),2017-09-21,01:01～02:00,0.0391,0.0351,0.0368,
江東 (Koto),2017-09-21,00:01～01:00,0.0387,0.0338,0.0364,
江東 (Koto),2017-09-20,23:01～24:00,0.0385,0.0343,0.0363,
江東 (Koto),2017-09-20,22:01～23:00,0.0389,0.0349,0.0368,
江東 (Koto),2017-09-20,21:01～22:00,0.0384,0.0344,0.0363,
江東 (Koto),2017-09-20,20:01～21:00,0.0384,0.0344,0.0363,
江東 (Koto),2017-09-20,19:01～20:00,0.0385,0.0344,0.0363,
江東 (Koto),2017-09-20,18:01～19:00,0.0388,0.0347,0.0365,
江東 (Koto),2017-09-20,17:01～18:00,0.0385,0.0341,0.0365,
江東 (Koto),2017-09-20,16:01～17:00,0.0383,0.0346,0.0363,
江東 (Koto),2017-09-20,15:01～16:00,0.0385,0.0349,0.0368,
江東 (Koto),2017-09-20,14:01～15:00,0.0380,0.0342,0.0364,
江東 (Koto),2017-09-20,13:01～14:00,0.0387,0.0343,0.0363,
江東 (Koto),2017-09-20,12:01～13:00,0.0382,0.0346,0.0361,
江東 (Koto),2017-09-20,11:01～12:00,0.0387,0.0334,0.0361,
江東 (Koto),2017-09-20,10:01～11:00,0.0378,0.0340,0.0360,
江東 (Koto),2017-09-20,09:01～10:00,0.0381,0.0340,0.0360,
江東 (Koto),2017-09-20,08:01～09:00,0.0376,0.0330,0.0358,
江東 (Koto),2017-09-20,07:01～08:00,0.0385,0.0327,0.0360,
江東 (Koto),2017-09-20,06:01～07:00,0.0381,0.0343,0.0360,
江東 (Koto),2017-09-20,05:01～06:00,0.0383,0.0345,0.0361,
江東 (Koto),2017-09-20,04:01～05:00,0.0385,0.0340,0.0361,
江東 (Koto),2017-09-20,03:01～04:00,0.0392,0.0343,0.0362,
江東 (Koto),2017-09-20,02:01～03:00,0.0384,0.0344,0.0363,
江東 (Koto),2017-09-20,01:01～02:00,0.0384,0.0343,0.0362,
江東 (Koto),2017-09-20,00:01～01:00,0.0390,0.0338,0.0364,
江東 (Koto),2017-09-19,23:01～24:00,0.0384,0.0336,0.0362,
江東 (Koto),2017-09-19,22:01～23:00,0.0385,0.0338,0.0364,
江東 (Koto),2017-09-19,21:01～22:00,0.0379,0.0339,0.0361,
江東 (Koto),2017-09-19,20:01～21:00,0.0386,0.0345,0.0363,
江東 (Koto),2017-09-19,19:01～20:00,0.0380,0.0337,0.0361,
江東 (Koto),2017-09-19,18:01～19:00,0.0384,0.0338,0.0360,
江東 (Koto),2017-09-19,17:01～18:00,0.0379,0.0338,0.0360,
江東 (Koto),2017-09-19,16:01～17:00,0.0380,0.0340,0.0361,
江東 (Koto),2017-09-19,15:01～16:00,0.0378,0.0339,0.0359,
江東 (Koto),2017-09-19,14:01～15:00,0.0381,0.0336,0.0360,
江東 (Koto),2017-09-19,13:01～14:00,0.0386,0.0333,0.0358,
江東 (Koto),2017-09-19,12:01～13:00,0.0377,0.0331,0.0359,
江東 (Koto),2017-09-19,11:01～12:00,0.0386,0.0341,0.0361,
江東 (Koto),2017-09-19,10:01～11:00,0.0380,0.0339,0.0359,
江東 (Koto),2017-09-19,09:01～10:00,0.0381,0.0336,0.0358,
江東 (Koto),2017-09-19,08:01～09:00,0.0381,0.0338,0.0358,
江東 (Koto),2017-09-19,07:01～08:00,0.0389,0.0340,0.0362,
江東 (Koto),2017-09-19,06:01～07:00,0.0378,0.0340,0.0360,
江東 (Koto),2017-09-19,05:01～06:00,0.0380,0.0340,0.0357,
江東 (Koto),2017-09-19,04:01～05:00,0.0384,0.0339,0.0360,
江東 (Koto),2017-09-19,03:01～04:00,0.0376,0.0341,0.0359,
江東 (Koto),2017-09-19,02:01～03:00,0.0388,0.0343,0.0362,
江東 (Koto),2017-09-19,01:01～02:00,0.0380,0.0334,0.0356,
江東 (Koto),2017-09-19,00:01～01:00,0.0397,0.0344,0.0362,
江東 (Koto),2017-09-18,23:01～24:00,0.0378,0.0333,0.0359,
江東 (Koto),2017-09-18,22:01～23:00,0.0381,0.0339,0.0360,
江東 (Koto),2017-09-18,21:01～22:00,0.0379,0.0340,0.0357,
江東 (Koto),2017-09-18,20:01～21:00,0.0381,0.0346,0.0361,
江東 (Koto),2017-09-18,19:01～20:00,0.0378,0.0335,0.0357,
江東 (Koto),2017-09-18,18:01～19:00,0.0380,0.0336,0.0359,
江東 (Koto),2017-09-18,17:01～18:00,0.0377,0.0339,0.0357,
江東 (Koto),2017-09-18,16:01～17:00,0.0380,0.0341,0.0363,
江東 (Koto),2017-09-18,15:01～16:00,0.0385,0.0341,0.0359,
江東 (Koto),2017-09-18,14:01～15:00,0.0392,0.0342,0.0359,
江東 (Koto),2017-09-18,13:01～14:00,0.0382,0.0339,0.0359,
江東 (Koto),2017-09-18,12:01～13:00,0.0380,0.0328,0.0360,
江東 (Koto),2017-09-18,11:01～12:00,0.0382,0.0339,0.0359,
江東 (Koto),2017-09-18,10:01～11:00,0.0375,0.0335,0.0359,
江東 (Koto),2017-09-18,09:01～10:00,0.0378,0.0343,0.0360,
江東 (Koto),2017-09-18,08:01～09:00,0.0384,0.0333,0.0361,
江東 (Koto),2017-09-18,07:01～08:00,0.0382,0.0332,0.0361,
江東 (Koto),2017-09-18,06:01～07:00,0.0387,0.0345,0.0363,
江東 (Koto),2017-09-18,05:01～06:00,0.0392,0.0340,0.0364,
江東 (Koto),2017-09-18,04:01～05:00,0.0384,0.0345,0.0364,
江東 (Koto),2017-09-18,03:01～04:00,0.0391,0.0354,0.0370,
江東 (Koto),2017-09-18,02:01～03:00,0.0395,0.0351,0.0376,
江東 (Koto),2017-09-18,01:01～02:00,0.0395,0.0348,0.0370,
江東 (Koto),2017-09-18,00:01～01:00,0.0384,0.0336,0.0362,
